Kingsville NAS, TX

8:05 AM CST on November 18, 2019 (GMT -0600)
Kingsville Naval Air Station

Weather History for KNQI - October, 2019

Change the Weather History Date:

Monday, October 21, 2019

  Actual Average Record
Temperature  
Mean Temperature 80 °F -  
Max Temperature 90 °F 81 °F 95 °F (2015)
Min Temperature 66 °F 62 °F 46 °F (1999)
Cooling Degree Days 14    
Growing Degree Days 30 (Base 50)    
Moisture  
Dew Point 69 °F    
Average Humidity 70    
Maximum Humidity 88    
Minimum Humidity 31    
Precipitation  
Precipitation 0.00 in - - ()
Sea Level Pressure  
Sea Level Pressure 29.76 in    
Wind  
Wind Speed 11 mph (ESE)    
Max Wind Speed 16 mph    
Max Gust Speed 24 mph    
Visibility 9 miles    
Events      
Averages and records for this station are not official NWS values.
T = Trace of Precipitation, MM = Missing Value Source: NWS Daily Summary

Daily Weather History Graph

Daily Weather History Graph

Search for Another Location

Airport or City:

Astronomy

Oct. 21, 2019 Rise Set
Actual Time 7:34 AM CDT 6:56 PM CDT
Civil Twilight 7:10 AM CDT 7:20 PM CDT
Nautical Twilight 6:43 AM CDT 7:47 PM CDT
Astronomical Twilight 6:16 AM CDT 8:14 PM CDT
Moon 12:27 AM CDT (10/21) 2:36 PM CDT (10/21)
Length of Visible Light 12h 09m
Length of Day
11h 22m
Waning Gibbous, 48% of the Moon is Illuminated
Oct 21
Waning Gibbous
Oct 27
New
Nov 4
First Quarter
Nov 12
Full
Nov 19
Last Quarter

Hourly Weather History & Observations

Time (CDT) Temp. Heat Index Dew Point Humidity Pressure Visibility Wind Dir Wind Speed Gust Speed Precip Events Conditions
12:56 AM 82.9 °F 92.8 °F 78.1 °F 85% 29.71 in 9.0 mi South 11.5 mph - N/A   Overcast
1:56 AM 82.9 °F 92.8 °F 78.1 °F 85% 29.69 in 8.0 mi South 13.8 mph - N/A   Overcast
2:13 AM 82.9 °F 92.8 °F 78.1 °F 85% 29.70 in 8.0 mi South 12.7 mph - N/A   Mostly Cloudy
2:25 AM 82.9 °F 92.8 °F 78.1 °F 85% 29.69 in 8.0 mi South 10.4 mph - N/A   Mostly Cloudy
2:32 AM 82.9 °F 92.8 °F 78.1 °F 85% 29.69 in 8.0 mi SSE 11.5 mph - N/A   Mostly Cloudy
2:56 AM 82.9 °F 92.8 °F 78.1 °F 85% 29.66 in 8.0 mi SSE 11.5 mph - N/A   Overcast
3:20 AM 82.0 °F 91.0 °F 78.1 °F 88% 29.68 in 8.0 mi SSE 13.8 mph - N/A   Mostly Cloudy
3:43 AM 82.0 °F 91.0 °F 78.1 °F 88% 29.67 in 7.0 mi South 11.5 mph - N/A   Mostly Cloudy
3:56 AM 82.0 °F 91.0 °F 78.1 °F 88% 29.65 in 7.0 mi South 15.0 mph - N/A   Mostly Cloudy
4:11 AM 81.0 °F 86.7 °F 75.0 °F 82% 29.66 in 10.0 mi South 11.5 mph - N/A   Partly Cloudy
4:42 AM 81.0 °F 86.7 °F 75.0 °F 82% 29.68 in 10.0 mi South 11.5 mph - N/A   Mostly Cloudy
4:56 AM 81.0 °F 86.7 °F 75.0 °F 82% 29.68 in 10.0 mi South 16.1 mph 23.0 mph N/A   Mostly Cloudy
5:05 AM 80.1 °F 85.1 °F 75.0 °F 85% 29.68 in 10.0 mi South 11.5 mph - N/A   Scattered Clouds
5:56 AM 78.1 °F - 73.0 °F 84% 29.69 in 10.0 mi South 11.5 mph - N/A   Clear
6:41 AM 75.9 °F - 72.0 °F 87% 29.69 in 10.0 mi South 8.1 mph - N/A   Overcast
6:56 AM 75.9 °F - 72.0 °F 87% 29.69 in 10.0 mi SSW 6.9 mph - N/A   Overcast
7:38 AM 77.0 °F - 72.0 °F 84% 29.75 in 10.0 mi NW 6.9 mph - N/A   Overcast
7:56 AM 78.1 °F - 73.0 °F 84% 29.74 in 10.0 mi Variable 3.5 mph - N/A   Overcast
8:56 AM 79.0 °F - 73.0 °F 82% 29.79 in 9.0 mi North 5.8 mph - N/A   Overcast
9:56 AM 84.0 °F 91.9 °F 75.0 °F 74% 29.79 in 10.0 mi NNW 5.8 mph - N/A   Mostly Cloudy
10:56 AM 84.0 °F 91.2 °F 73.9 °F 72% 29.81 in 9.0 mi NNW 9.2 mph - N/A   Overcast
11:56 AM 82.9 °F 85.8 °F 68.0 °F 60% 29.82 in 10.0 mi NNE 15.0 mph 24.2 mph N/A   Overcast
12:56 PM 84.9 °F 86.1 °F 64.0 °F 49% 29.82 in 10.0 mi NNE 15.0 mph 21.9 mph N/A   Overcast
1:56 PM 84.9 °F 85.9 °F 63.0 °F 48% 29.81 in 10.0 mi NNE 12.7 mph - N/A   Mostly Cloudy
2:56 PM 86.0 °F 86.8 °F 63.0 °F 46% 29.80 in 10.0 mi NNE 13.8 mph - N/A   Mostly Cloudy
3:56 PM 89.1 °F 89.3 °F 62.1 °F 40% 29.80 in 10.0 mi NNE 8.1 mph 17.3 mph N/A   Mostly Cloudy
4:56 PM 90.0 °F 89.1 °F 59.0 °F 35% 29.80 in 10.0 mi North 10.4 mph 17.3 mph N/A   Mostly Cloudy
5:56 PM 87.1 °F 85.1 °F 54.0 °F 32% 29.81 in 10.0 mi NNE 10.4 mph - N/A   Scattered Clouds
6:56 PM 84.0 °F - 50.0 °F 31% 29.84 in 10.0 mi NE 9.2 mph - N/A   Mostly Cloudy
7:56 PM 78.1 °F - 64.0 °F 62% 29.88 in 10.0 mi ENE 6.9 mph - N/A   Mostly Cloudy
8:56 PM 73.9 °F - 60.1 °F 62% 29.91 in 10.0 mi ENE 5.8 mph - N/A   Mostly Cloudy
9:56 PM 71.1 °F - 51.1 °F 49% 29.94 in 10.0 mi NNE 8.1 mph - N/A   Scattered Clouds
10:56 PM 69.1 °F - 50.0 °F 51% 29.97 in 10.0 mi NNE 6.9 mph - N/A   Scattered Clouds
11:56 PM 66.0 °F - 48.9 °F 54% 29.99 in 10.0 mi NNE 6.9 mph - N/A   Scattered Clouds